Theta_e
283 284 284 284 285 285 285 285 285 285 284 285 284 284 283 283 280 280 281 283 284 284 283 284 283 283 284 285 286 284 284 286 287 285 285 285 286 289 293 296 299 301 302 303 303 303 303 305 307 307 308 310 311 312 312 311 311 312 312 312 311 310 310 310 310 311 311 311 311 311 310 309 309 309
281 282 282 283 283 284 284 285 285 285 285 284 284 284 284 283 281 280 279 281 284 285 284 282 284 283 282 283 284 284 285 287 287 285 285 285 285 290 292 294 296 299 301 302 302 303 303 304 306 306 307 308 310 312 312 312 312 312 312 312 311 310 310 310 310 310 310 311 311 310 310 309 309 309
280 280 280 281 281 282 282 283 284 284 284 284 284 283 284 283 283 282 281 279 283 283 284 284 283 282 283 285 285 285 284 286 287 285 285 285 288 290 290 291 294 296 298 299 300 302 303 304 305 306 306 308 309 311 311 310 311 311 310 311 311 310 310 310 310 310 310 310 310 310 310 309 309 309
279 279 279 279 280 281 281 281 281 282 283 284 284 283 283 283 283 282 281 280 281 284 285 285 286 287 286 286 286 285 285 286 287 285 284 285 288 286 286 290 292 294 295 297 299 300 301 302 304 306 306 306 308 309 310 310 310 309 309 309 310 310 308 308 309 310 310 309 309 310 309 308 309 309
278 278 278 278 279 279 279 279 280 281 282 282 283 283 283 282 282 281 280 279 280 282 284 284 285 285 284 285 284 285 285 285 285 286 284 284 284 284 284 285 288 291 293 295 297 298 300 301 303 305 306 306 306 307 308 308 308 308 308 308 308 309 308 308 308 309 309 309 309 309 308 308 307 307
277 277 277 277 278 278 278 278 278 279 280 280 281 281 281 281 281 282 281 280 280 279 281 282 284 284 285 284 285 284 286 285 285 285 285 284 283 284 284 284 284 289 291 293 295 297 298 300 301 303 304 306 306 306 306 306 305 306 306 306 306 307 307 307 307 307 309 309 309 309 308 307 307 307
276 276 276 276 277 278 277 277 277 278 278 279 279 280 280 280 281 281 281 280 279 279 279 281 282 283 284 284 284 284 285 285 285 284 284 285 285 284 284 283 284 288 291 293 294 296 297 298 299 301 303 304 305 305 305 305 304 304 305 305 305 305 305 305 305 305 307 309 309 308 307 307 306 306
275 275 275 276 276 276 276 277 277 277 277 277 278 278 279 279 280 280 281 281 280 280 279 280 280 282 281 283 283 283 283 283 283 284 284 284 284 284 284 284 284 286 290 292 293 295 296 297 298 299 300 302 304 304 304 304 303 303 302 302 303 303 303 303 303 304 306 308 307 307 307 307 305 305
275 275 275 276 276 276 276 276 276 277 277 277 277 277 278 278 278 279 280 280 280 279 278 279 280 280 281 282 282 282 282 283 283 283 282 283 283 283 284 284 284 287 290 291 292 293 294 295 296 298 299 300 302 303 303 303 302 301 301 301 301 302 302 302 302 302 303 305 305 306 306 306 306 305
276 276 276 276 276 276 276 276 276 277 276 277 277 277 277 278 278 278 278 278 278 279 278 279 278 280 280 280 280 282 281 281 281 282 282 282 282 282 282 283 284 284 285 285 287 290 291 293 294 296 297 299 300 302 303 302 302 300 299 299 299 300 301 301 301 302 303 303 303 304 305 304 305 305
276 276 276 276 276 276 276 276 276 276 277 277 277 277 277 278 277 277 277 277 277 277 277 278 278 278 279 279 279 280 281 281 281 280 281 281 283 282 282 282 283 283 284 286 288 288 288 290 291 293 295 297 298 300 301 301 301 299 298 298 299 299 300 300 301 301 302 302 302 302 302 303 304 305
275 275 275 276 276 276 276 276 276 277 277 277 277 278 278 278 277 277 277 277 277 277 277 277 277 278 278 278 278 279 278 278 279 279 279 279 281 281 282 282 283 283 283 282 283 286 288 289 290 292 293 294 296 298 298 299 299 297 298 298 299 299 299 299 300 300 301 301 301 301 301 301 301 303
274 274 274 275 275 276 278 279 280 280 280 279 278 278 279 278 278 277 277 277 277 276 276 276 277 277 277 277 278 277 277 277 278 280 279 279 281 281 281 282 283 283 282 282 282 282 283 283 284 285 286 288 291 293 295 296 296 297 298 299 299 299 299 299 299 299 300 300 300 300 300 300 300 300
272 272 273 274 276 276 277 277 278 279 280 280 279 278 278 278 278 278 277 277 277 276 275 276 276 276 275 276 277 277 278 279 279 279 278 279 280 280 280 281 282 282 282 282 281 282 283 282 282 283 283 285 287 288 290 292 295 296 298 299 299 299 298 298 298 299 299 299 299 299 299 299 299 299
271 272 272 273 274 275 275 275 277 278 278 279 279 280 280 280 278 277 277 277 278 277 277 277 277 276 276 277 278 278 278 279 278 279 279 279 279 279 278 278 281 281 282 281 281 282 283 282 281 282 282 284 284 286 287 292 295 296 297 298 298 298 298 298 298 298 298 298 299 299 299 299 299 299
270 270 270 271 271 270 271 271 271 273 275 277 277 278 279 279 280 281 278 277 277 277 277 277 278 278 278 278 279 278 278 278 278 278 279 279 278 278 278 278 278 281 282 280 280 281 282 282 281 281 282 283 283 285 288 291 293 295 297 298 298 298 298 298 297 297 297 298 298 298 298 298 299 299
268 268 268 268 269 269 272 271 270 270 271 274 276 277 277 277 278 279 280 281 278 278 277 276 277 277 278 278 279 280 279 280 278 278 278 278 278 278 278 279 280 279 281 280 280 280 281 281 281 281 282 282 283 284 288 290 292 293 295 296 297 298 298 298 297 297 297 297 297 298 298 298 298 298
268 268 268 268 268 269 270 270 270 270 271 271 271 272 272 272 274 276 277 278 278 278 276 275 274 276 278 277 279 280 281 280 279 279 279 279 278 278 278 280 281 281 281 280 280 280 280 280 280 280 282 282 282 283 286 289 291 292 293 295 296 297 298 298 297 297 297 297 297 297 297 297 297 297
268 268 268 268 268 268 269 270 271 270 271 271 271 272 272 273 273 273 274 274 274 274 274 274 274 275 276 276 277 278 279 279 279 280 279 280 280 281 281 281 281 281 280 280 280 278 281 280 279 280 282 282 282 283 286 289 290 291 292 293 294 296 296 297 297 297 297 297 296 297 297 297 297 297
268 268 268 268 268 268 268 271 273 273 271 271 270 270 271 271 272 273 275 277 278 277 276 276 277 277 278 280 280 280 280 280 280 280 280 280 280 279 278 277 279 280 280 280 279 278 280 279 279 280 281 281 281 282 282 287 290 291 292 292 293 295 295 296 297 297 297 297 297 296 296 296 297 296
268 268 268 268 268 268 268 271 274 274 274 271 271 271 271 272 272 272 274 277 279 279 280 280 281 281 282 282 282 283 283 282 282 282 280 279 279 278 276 276 278 278 280 278 280 279 279 280 278 279 278 279 280 281 282 283 287 290 291 292 293 293 294 295 295 296 296 296 296 296 296 296 296 295
268 268 270 270 269 268 269 273 275 276 274 271 271 271 270 269 269 270 272 273 274 277 278 279 279 280 280 281 281 282 282 283 282 278 276 279 281 278 278 276 277 278 280 278 280 278 278 280 276 275 275 276 277 280 281 282 283 288 290 291 292 293 293 294 294 295 295 296 296 296 296 296 295 294
268 268 269 271 272 271 272 275 276 276 275 272 271 271 270 270 269 271 271 270 270 271 271 272 273 275 276 276 276 276 280 281 280 279 278 279 278 278 279 279 278 277 278 280 280 278 277 280 274 278 271 274 276 278 279 280 281 282 284 286 288 291 292 293 293 294 294 295 295 296 296 296 295 292
267 268 268 270 273 274 275 275 276 276 276 273 273 272 271 270 270 272 272 272 272 272 272 272 273 274 275 276 277 276 276 277 278 278 278 278 278 278 278 279 279 278 278 281 280 279 279 280 275 279 279 276 272 270 276 277 279 279 282 283 284 288 290 291 291 292 293 293 294 295 295 295 295 292
267 268 269 269 273 275 276 276 276 276 276 277 274 273 272 272 273 275 273 274 276 274 274 274 274 274 275 275 275 275 275 276 277 278 279 278 278 278 277 278 278 279 281 283 284 279 278 278 277 277 276 277 278 274 269 276 277 278 279 281 282 283 285 286 287 288 291 292 293 294 294 295 295 293
269 269 270 270 272 275 276 276 276 277 277 277 273 273 276 278 278 275 275 274 274 273 272 271 271 271 271 271 271 272 272 273 274 275 277 279 279 280 279 279 278 278 279 284 287 280 279 278 277 277 275 274 274 277 272 270 273 277 278 279 280 281 283 284 285 285 286 287 289 291 292 294 295 295
269 270 270 271 274 275 276 276 277 277 278 277 275 278 278 278 278 276 273 273 272 270 269 269 268 268 268 268 269 270 271 272 273 274 275 276 277 278 280 281 281 280 281 283 284 283 281 280 279 278 276 276 276 274 274 274 272 273 275 277 278 279 281 282 283 284 285 285 286 290 292 293 294 295
271 270 270 271 275 276 276 277 277 277 276 275 277 277 277 277 276 273 272 271 271 270 269 269 268 268 268 269 269 269 270 271 272 273 273 274 275 276 277 279 280 281 282 282 283 283 283 281 280 279 280 277 276 275 275 275 273 274 274 276 277 279 280 280 281 282 284 285 285 286 286 287 290 291
271 273 276 277 277 277 277 277 277 275 274 276 276 276 276 275 272 271 269 269 268 267 267 267 267 267 268 269 270 271 271 271 272 272 272 273 274 275 276 277 279 280 281 282 282 283 283 282 281 280 279 279 278 277 278 276 273 273 274 275 273 276 278 280 280 281 282 283 284 285 285 286 287 289
276 276 276 277 276 275 274 272 271 271 272 275 276 276 275 270 268 268 267 266 266 265 265 266 266 266 267 268 269 270 270 270 269 270 270 270 271 272 272 273 275 278 281 282 282 283 283 283 282 282 280 279 280 279 279 278 276 275 276 276 276 277 278 279 280 280 281 281 283 284 285 286 286 287
271 272 273 272 274 274 275 275 274 273 273 270 269 268 267 267 267 267 266 266 266 266 266 267 267 268 269 269 269 269 269 269 270 271 271 270 270 271 272 272 273 275 277 280 282 282 283 283 283 283 281 280 280 280 280 280 279 276 276 277 278 274 275 278 278 279 280 281 282 283 284 285 285 286
272 272 273 272 270 269 268 268 267 266 266 266 266 266 266 266 267 268 270 270 269 269 269 269 269 269 269 268 269 269 270 270 270 271 270 270 269 271 271 271 271 274 275 278 280 282 283 283 283 283 283 282 280 280 280 280 279 279 276 277 278 279 279 277 278 279 281 281 281 282 283 284 284 285
270 270 268 267 265 264 263 263 263 263 263 264 265 265 265 265 266 266 266 266 267 267 268 267 267 267 268 268 268 269 269 269 270 271 271 271 270 271 271 271 272 272 273 275 278 280 281 282 283 283 283 283 283 281 280 278 279 280 278 276 277 277 278 278 278 279 280 280 280 281 281 283 284 285
266 264 262 262 261 261 261 261 262 263 263 264 264 264 266 266 265 266 267 267 268 268 268 268 268 268 268 268 268 268 268 269 270 271 272 270 271 271 271 271 272 274 275 275 277 279 280 281 281 278 278 277 276 280 282 280 279 280 279 277 277 276 278 278 278 279 280 280 280 279 280 281 283 284
260 259 259 259 260 261 262 262 262 262 262 262 262 263 264 264 265 266 266 267 268 268 268 268 269 269 269 268 269 269 269 269 269 269 270 270 271 271 271 271 272 273 274 275 276 278 279 278 277 277 276 276 277 277 279 281 281 280 280 278 277 277 277 278 278 278 279 280 280 279 279 280 280 281
257 257 258 258 259 260 259 260 260 260 260 260 261 261 262 262 263 264 265 266 267 268 268 268 269 269 269 269 269 269 269 269 269 269 269 270 271 272 272 273 273 274 275 275 277 278 278 277 276 274 273 273 273 274 276 281 282 281 279 277 278 277 277 277 277 278 278 278 279 279 277 277 278 279
255 256 256 257 258 258 257 258 258 258 258 259 259 260 260 261 262 264 265 267 267 268 269 269 269 270 270 270 270 270 270 269 268 269 270 271 272 272 272 273 274 275 275 276 278 276 276 276 276 275 274 273 272 271 275 275 278 282 280 279 277 277 277 276 275 276 277 278 277 278 278 278 278 278
254 255 255 256 256 256 257 257 257 257 258 258 259 259 260 261 263 264 265 266 267 268 270 270 270 270 270 270 269 269 269 269 270 270 271 271 272 273 273 274 274 275 276 277 276 275 276 276 275 276 275 273 272 271 273 272 270 274 279 279 276 275 277 275 274 274 275 277 276 278 279 278 278 278
254 255 255 255 256 256 256 256 257 257 257 258 258 259 260 261 262 263 264 265 266 268 269 270 270 270 270 270 270 270 269 270 270 271 272 273 274 274 274 275 275 277 277 275 274 274 275 275 275 276 276 275 273 274 274 271 270 273 276 281 279 276 275 275 274 275 274 274 275 276 274 276 277 279
255 255 255 256 255 256 256 257 257 257 257 258 259 260 260 261 261 262 263 264 266 268 268 268 270 271 271 271 271 271 271 271 272 272 273 273 274 275 275 275 276 276 275 273 272 272 274 274 275 276 276 277 277 277 275 273 270 268 269 276 282 279 276 276 274 274 273 274 275 273 271 273 270 274
255 255 255 255 255 256 256 256 257 257 257 258 259 261 261 261 261 262 263 265 265 266 266 267 267 268 270 271 272 272 271 272 272 273 274 274 274 275 275 275 274 275 274 272 272 272 272 274 276 279 277 274 272 274 272 270 269 269 269 271 278 281 280 279 276 275 273 275 274 272 271 270 270 272
254 254 255 255 255 256 256 256 257 258 258 259 259 260 260 261 262 264 264 264 264 265 265 265 266 267 268 269 271 272 272 272 273 273 274 274 274 274 274 273 273 273 272 271 271 272 273 273 275 275 274 273 273 272 270 271 271 268 269 270 272 278 280 278 278 278 276 274 272 269 268 268 269 267
255 254 255 255 256 256 257 257 258 258 259 259 260 260 261 261 262 262 262 263 264 264 264 264 265 266 267 268 269 270 270 271 273 273 273 273 273 273 274 274 274 274 273 272 271 271 271 272 273 272 272 273 272 273 271 271 271 269 268 269 271 273 275 277 277 277 277 277 276 274 272 270 268 264
254 255 255 255 256 256 257 257 258 259 260 260 261 261 261 261 262 262 263 263 263 263 264 264 265 265 266 266 267 268 269 271 272 272 273 273 273 274 274 274 274 274 273 271 270 269 270 270 271 272 271 271 271 271 270 269 268 268 269 269 270 270 270 272 274 276 277 277 276 276 275 275 274 274
254 255 255 255 256 256 257 258 259 259 260 261 262 262 262 262 262 262 263 263 263 263 264 264 264 264 265 266 266 267 268 270 270 271 272 272 272 272 273 273 273 273 272 271 269 267 269 269 269 271 270 270 270 270 270 269 268 268 268 268 268 270 270 270 270 269 270 270 274 275 275 274 274 275
Wind_Speed
6 6 5 5 5 5 4 3 4 4 4 4 5 4 5 5 7 8 9 14 10 3 3 3 4 3 5 6 4 4 4 6 7 5 5 6 8 10 16 20 21 22 22 22 21 20 20 20 19 19 19 19 19 19 19 19 17 16 15 15 18 19 20 21 21 20 20 20 20 19 18 17 18 18
5 5 5 5 5 5 5 5 5 4 5 5 4 5 5 5 6 5 8 15 5 11 3 3 4 2 3 3 5 3 5 8 8 6 6 6 8 13 17 17 19 21 23 23 22 22 21 21 20 19 19 19 18 17 18 18 18 16 17 19 20 20 20 20 22 21 21 21 21 20 19 19 20 19
5 6 6 5 5 5 5 6 6 5 4 5 5 5 5 5 6 7 7 11 5 1 9 4 2 2 5 7 7 6 6 8 8 6 6 7 10 14 11 15 17 20 22 22 22 23 23 22 21 21 20 20 19 19 18 20 19 18 20 22 22 21 21 20 20 21 21 21 22 21 20 21 21 21
6 7 7 7 6 6 5 6 5 6 5 5 5 6 6 6 6 6 7 10 15 5 10 11 9 8 9 7 9 8 6 7 10 7 7 8 10 9 8 10 17 19 20 21 22 23 23 23 22 21 22 22 22 21 19 19 19 18 19 21 22 23 24 21 19 19 20 22 23 22 19 21 22 21
6 7 8 9 7 6 7 6 6 6 6 6 6 6 6 7 6 6 7 10 13 8 5 9 8 6 5 8 4 9 7 7 7 7 6 6 6 7 7 8 12 16 18 20 21 22 23 23 23 21 21 21 21 20 23 25 21 19 21 21 22 25 24 24 22 20 19 23 23 24 22 21 23 23
7 8 9 10 8 7 8 8 6 6 6 6 7 7 6 7 7 6 7 9 10 14 4 7 8 7 5 10 3 7 9 8 6 8 7 4 6 7 7 7 8 12 16 19 20 22 23 24 24 24 21 21 22 23 23 23 23 23 25 22 21 22 23 24 23 22 21 22 23 24 22 20 22 24
8 9 10 10 9 7 9 9 7 6 6 6 7 9 7 8 8 7 7 8 12 13 11 5 8 6 6 7 8 5 7 7 7 8 8 8 5 5 6 8 7 10 16 18 20 21 22 23 24 25 24 22 21 22 23 22 21 22 22 23 23 21 20 22 23 22 20 19 22 25 23 22 22 23
9 9 11 10 9 8 10 10 9 7 7 7 7 8 8 7 9 8 7 8 10 11 13 8 6 7 7 9 6 5 6 8 8 8 8 4 7 7 6 7 7 8 15 18 19 20 21 22 23 24 24 23 22 22 23 23 21 20 20 20 21 21 20 21 21 21 21 24 25 26 27 26 25 24
10 10 10 11 10 9 11 10 8 8 9 9 8 9 9 8 8 7 7 9 9 11 13 12 7 6 7 7 9 6 8 8 8 6 7 7 8 8 7 6 7 10 16 18 19 19 21 22 23 24 25 25 24 23 22 22 21 20 20 20 20 21 21 21 21 21 20 20 20 22 25 27 26 25
9 9 11 11 10 10 11 12 11 9 10 10 10 10 10 9 8 9 9 8 9 10 12 11 12 7 8 7 6 7 6 8 9 8 7 6 6 8 8 7 6 5 6 6 8 12 16 19 23 24 24 25 26 24 23 22 22 22 20 20 19 20 21 21 21 21 20 20 20 20 22 26 27 24
10 10 10 10 11 11 11 12 12 11 11 10 11 10 10 9 9 10 10 9 9 10 12 12 10 10 7 7 10 6 6 8 8 8 9 9 7 6 7 9 6 6 7 10 14 12 11 12 11 16 23 25 26 26 24 23 23 22 21 21 20 20 20 21 22 21 21 21 21 21 21 21 24 25
10 10 10 10 10 11 11 12 12 11 11 11 12 10 9 9 10 10 10 9 9 10 11 11 12 9 9 7 6 4 3 6 8 6 7 11 11 6 6 8 8 4 6 7 6 9 11 13 15 19 21 24 26 24 22 23 23 23 21 22 22 20 21 21 22 22 22 22 21 21 20 21 21 24
11 11 10 10 10 13 19 24 21 20 18 14 13 12 10 10 10 10 9 9 9 10 10 12 10 11 10 9 8 7 6 8 11 6 4 8 10 8 8 8 7 7 7 6 6 7 7 8 9 9 10 12 17 19 23 19 23 22 21 22 23 21 22 22 22 23 22 22 22 21 21 21 21 21
10 10 11 12 21 24 23 23 24 24 24 24 19 15 13 12 12 11 11 10 9 9 11 11 11 12 12 11 8 9 7 7 6 8 6 9 11 8 8 11 6 7 7 7 9 9 7 8 9 8 10 10 10 10 12 13 14 17 22 23 24 22 23 23 22 23 24 23 22 22 22 22 22 22
13 11 11 11 13 15 16 14 19 21 23 23 24 26 25 21 16 14 14 12 10 10 11 11 12 12 14 14 10 9 8 7 7 9 8 9 9 9 7 11 6 4 8 7 7 10 6 7 10 9 10 9 8 9 11 11 18 20 22 23 24 21 23 23 25 24 24 24 23 23 23 23 23 23
13 14 13 12 11 11 14 15 15 18 22 23 24 25 25 24 26 24 18 15 13 12 12 12 12 11 13 13 11 9 8 8 6 7 8 9 9 10 9 8 11 4 7 5 7 11 4 7 9 10 10 9 8 10 12 18 20 22 23 21 23 21 22 24 25 26 24 25 25 24 24 24 24 24
13 13 13 12 11 10 18 14 12 13 14 19 23 23 24 24 24 24 25 25 19 14 15 15 16 14 13 15 14 11 9 7 10 6 8 7 8 9 10 11 11 5 6 6 7 11 5 8 8 11 10 8 8 10 15 21 21 23 23 23 24 24 23 24 25 27 26 26 26 25 25 25 24 24
12 12 12 12 12 12 12 12 13 13 14 14 13 13 13 13 17 21 24 25 26 22 15 14 15 15 11 13 13 13 11 12 12 10 11 7 9 9 12 11 13 8 6 8 7 11 8 6 7 11 10 6 8 9 12 20 22 24 25 25 25 25 23 24 25 25 26 28 27 27 26 24 24 24
12 13 12 13 14 13 13 12 15 15 14 14 12 12 11 11 11 12 12 12 11 12 12 14 15 17 15 16 17 18 15 14 14 13 13 12 12 12 12 12 11 10 6 7 6 13 11 4 7 10 9 5 9 9 12 21 23 24 24 25 25 26 28 28 27 26 26 27 27 27 26 25 24 25
11 12 12 13 13 13 14 18 24 21 17 14 14 15 14 14 13 13 14 20 21 17 15 14 14 14 15 20 18 17 16 14 14 14 14 13 13 12 12 14 10 13 6 10 10 10 12 4 8 9 6 5 8 7 7 15 23 23 24 24 25 26 26 27 26 26 27 28 27 27 27 26 24 24
11 11 12 13 14 15 15 20 26 25 24 15 15 14 13 10 9 9 10 18 23 23 24 27 29 30 30 30 31 32 34 25 19 14 13 14 11 13 14 14 12 14 8 7 10 10 13 8 8 8 4 6 7 8 8 9 16 23 23 24 25 25 26 26 28 28 28 28 27 28 29 26 24 23
11 12 22 21 17 15 15 23 26 26 20 13 12 11 13 14 13 12 11 11 13 21 25 26 27 27 27 27 28 29 28 28 22 15 17 14 11 14 12 15 13 11 10 7 10 8 13 9 4 4 4 4 4 6 7 7 9 17 20 24 24 24 25 26 27 28 27 28 29 29 30 25 23 17
12 12 15 23 22 20 21 27 24 25 20 13 12 12 13 14 14 12 11 11 12 11 11 12 13 15 19 18 16 16 27 28 23 16 15 13 13 14 13 14 12 13 12 8 11 12 8 10 4 7 2 7 5 6 7 7 7 7 8 10 13 21 23 24 24 26 28 27 28 28 29 26 22 12
10 10 9 13 21 26 26 25 27 25 26 17 13 12 12 12 14 11 13 13 13 14 13 14 13 14 12 11 11 11 12 14 15 16 14 14 13 14 15 14 12 13 10 5 10 12 7 9 6 8 10 8 6 1 3 4 6 6 7 8 8 13 18 19 20 26 27 27 29 28 28 27 24 13
9 8 9 9 19 26 27 27 27 27 26 25 17 13 12 12 16 19 14 13 17 13 11 10 9 8 8 8 8 9 10 9 10 11 13 14 14 14 15 14 15 15 12 9 10 10 9 8 10 6 8 7 8 5 2 5 5 6 7 8 8 8 7 9 7 10 17 25 27 28 28 29 30 20
10 12 10 9 19 29 29 29 29 30 28 29 17 14 22 26 27 19 14 12 9 8 7 8 9 9 9 10 9 10 10 11 12 13 12 12 13 13 15 15 16 15 15 11 14 11 11 11 9 8 7 6 8 8 5 2 5 7 6 6 7 6 7 8 8 9 8 8 10 15 18 30 29 31
11 10 12 14 26 30 30 29 30 29 30 23 15 25 27 26 28 23 11 10 10 10 10 10 11 10 10 10 11 10 10 9 10 10 12 13 15 15 16 17 17 17 16 14 12 12 13 13 8 12 10 8 10 7 6 7 5 4 5 6 6 6 6 7 8 9 8 8 9 14 19 24 30 32
10 11 13 16 29 30 30 30 28 26 23 17 24 25 26 26 23 13 11 9 10 11 10 11 11 11 9 9 10 9 9 10 10 11 12 13 13 15 15 16 17 18 18 17 16 15 16 16 12 10 13 11 11 11 10 6 4 7 8 7 5 6 6 7 7 7 7 8 8 8 8 9 12 16
12 18 29 32 30 29 30 30 28 21 20 24 24 25 26 24 11 9 9 10 10 11 11 12 10 11 9 11 12 11 10 11 11 11 9 10 11 12 14 16 17 19 17 16 17 17 17 16 15 10 10 11 11 10 9 8 7 6 7 8 4 6 7 7 8 9 8 8 8 9 10 10 10 10
30 29 29 32 30 26 22 15 10 8 10 20 25 26 23 12 10 10 10 10 10 10 10 10 12 10 10 11 10 11 12 11 12 10 10 11 11 11 12 14 15 16 17 18 18 18 18 17 15 13 12 11 12 12 11 9 6 6 8 9 7 3 6 8 9 7 7 8 9 9 9 9 10 9
14 18 18 14 19 17 22 21 19 18 18 14 12 10 9 9 9 9 8 9 10 10 10 11 10 11 10 10 11 10 9 12 10 8 10 10 11 11 12 13 15 15 15 16 17 17 17 17 16 15 14 12 12 12 11 9 9 6 7 8 8 8 6 10 7 9 9 8 7 7 8 8 9 10
13 12 13 14 8 6 6 7 6 6 7 9 9 9 8 9 10 12 18 18 13 12 12 11 12 11 11 11 10 10 10 9 10 9 11 11 13 12 11 11 12 11 14 13 16 17 18 16 16 15 15 13 13 11 9 8 9 8 7 8 8 8 5 9 10 9 9 7 7 8 9 9 9 9
12 10 10 9 10 9 9 8 7 6 7 7 8 10 9 9 9 8 8 9 10 9 11 11 11 12 10 10 10 10 12 11 10 8 10 11 13 12 11 14 14 13 15 14 14 14 14 14 15 16 13 12 12 10 9 9 10 9 8 7 8 8 6 7 8 8 7 7 8 8 8 7 8 9
9 8 8 8 8 9 8 9 9 9 9 9 9 9 11 10 8 9 8 9 9 10 9 11 10 11 11 11 10 10 10 11 10 10 12 11 10 11 13 14 14 13 12 13 14 13 10 11 9 6 4 4 2 8 11 11 10 9 7 7 8 9 8 6 7 8 9 10 10 9 8 8 8 8
8 8 8 9 9 9 8 8 9 10 11 11 12 11 11 10 10 11 10 10 10 11 11 10 11 10 11 10 10 11 11 12 12 10 10 10 12 12 13 13 13 11 12 12 15 12 9 8 8 8 4 4 4 4 3 6 10 8 6 8 8 9 7 6 7 7 8 8 7 8 8 8 8 6
7 7 7 8 8 9 9 10 11 10 10 11 11 11 12 12 11 11 10 11 11 11 12 11 11 10 9 10 10 11 10 11 10 9 10 10 10 11 12 13 12 12 12 13 15 9 9 9 9 10 10 9 7 8 9 11 11 7 8 7 7 7 6 6 7 7 8 8 8 8 9 9 8 6
6 6 6 6 7 8 8 9 9 9 9 9 10 9 11 12 11 11 11 15 12 12 12 12 10 9 9 9 9 9 10 10 11 10 10 10 9 11 10 12 13 13 14 15 13 9 9 9 9 10 10 9 10 14 12 1 8 10 6 7 5 6 6 6 6 7 8 8 8 8 9 7 6 6
6 7 7 7 7 7 7 8 8 9 9 9 8 10 10 10 10 12 13 11 13 12 13 11 10 10 9 9 9 9 10 10 10 11 13 13 11 11 10 12 13 14 14 12 8 9 9 9 9 10 11 13 10 9 9 1 1 3 5 4 4 5 6 7 7 8 7 6 8 8 6 7 5 5
5 6 7 8 8 8 9 9 9 9 10 9 10 10 11 11 11 12 12 13 13 12 13 13 11 10 10 10 10 10 10 10 10 11 10 10 10 11 12 12 12 9 9 7 6 7 8 9 10 9 9 10 11 9 6 2 3 2 5 11 7 6 7 9 8 7 7 7 6 2 4 2 5 6
7 6 6 7 8 8 8 8 9 9 9 10 10 10 10 12 12 12 12 13 13 13 13 13 14 13 10 10 10 10 10 12 12 11 11 11 11 11 10 10 9 7 6 6 6 6 8 8 9 9 9 9 8 6 5 2 2 2 1 7 17 10 7 7 8 7 7 6 5 6 5 3 3 3
8 8 7 7 7 8 8 9 9 9 9 10 10 11 10 10 11 11 11 13 14 13 12 12 13 13 13 11 10 9 10 11 11 11 10 10 10 9 10 9 6 4 2 6 8 7 8 8 8 11 8 6 7 7 5 3 4 2 3 4 8 15 12 10 7 7 6 6 7 7 6 6 6 5
7 8 8 7 8 9 8 9 9 9 10 9 9 10 10 10 9 16 15 15 13 13 11 12 12 12 12 12 11 11 10 10 10 10 9 9 9 9 9 6 6 1 3 1 4 7 3 2 4 6 6 8 8 7 7 6 6 3 3 0 1 7 10 9 9 6 6 8 8 5 4 4 3 3
8 8 9 9 8 8 8 9 9 9 10 10 9 10 10 11 10 11 9 10 10 10 11 11 11 11 11 11 11 10 10 11 10 10 9 8 8 8 7 6 6 5 5 5 3 4 4 5 5 6 5 7 8 8 8 7 5 5 4 4 3 3 3 6 7 7 8 9 4 6 6 7 7 7
8 9 9 9 9 9 9 9 10 10 10 10 10 9 9 10 11 11 10 10 11 11 11 12 12 12 12 12 11 11 10 9 10 10 9 7 7 7 7 6 6 4 3 3 4 4 4 5 5 6 6 5 4 6 7 5 5 5 6 6 4 6 5 4 4 6 8 8 9 10 9 7 5 4
8 8 9 9 9 9 9 9 9 10 10 10 10 9 10 9 10 10 10 10 10 11 11 11 11 11 12 11 11 11 10 11 10 9 9 8 6 6 6 6 6 5 3 4 5 5 4 5 4 4 4 3 2 3 3 5 6 6 6 7 7 6 5 5 7 7 5 4 5 7 5 5 4 8
Wind_Direction
327 327 325 312 301 302 304 290 269 266 266 259 257 248 251 264 275 303 300 295 307 302 192 284 294 234 245 257 283 303 280 272 273 269 262 257 261 258 253 252 253 253 253 251 247 243 243 243 243 245 246 245 237 235 238 239 238 241 240 237 236 239 243 242 237 236 235 235 235 231 228 231 234 234
320 310 312 314 309 304 306 294 290 278 269 266 253 247 245 225 244 259 283 288 290 295 269 222 269 322 309 285 289 267 270 266 268 254 242 243 247 256 258 258 258 257 256 254 252 248 243 240 238 239 241 243 237 230 229 229 229 229 232 235 237 237 240 243 241 237 235 234 233 230 224 228 231 232
323 317 313 307 299 302 302 299 298 287 271 264 258 257 242 239 229 243 251 278 279 125 299 288 248 262 295 292 282 281 272 268 266 259 246 244 244 250 257 256 255 255 256 256 255 254 250 244 237 234 237 239 238 231 227 228 228 227 229 231 233 234 235 242 247 239 234 235 235 230 226 229 230 229
319 316 313 309 307 306 300 295 290 290 284 269 263 254 249 248 238 236 248 252 272 268 279 285 286 283 281 279 289 278 268 266 262 258 248 249 251 253 253 249 250 252 253 253 254 253 252 249 243 233 232 235 235 233 228 226 228 228 227 229 231 233 238 238 244 251 237 232 235 233 226 227 231 231
314 312 307 307 305 305 300 291 288 288 286 287 272 258 252 254 245 235 245 258 274 270 222 273 282 281 287 287 232 278 277 279 275 264 255 254 252 253 251 251 248 248 250 251 252 253 253 251 247 241 232 229 231 231 232 232 230 231 231 231 233 236 236 237 237 244 243 232 231 232 226 224 230 230
316 309 307 302 304 307 297 296 291 280 283 283 286 278 261 256 258 232 247 261 266 283 253 271 276 284 260 280 230 256 279 279 272 273 274 249 240 248 252 254 253 244 247 247 248 249 250 251 250 247 240 230 225 228 231 234 234 233 236 234 232 234 235 235 236 237 238 230 230 232 227 227 232 230
310 306 302 300 305 305 299 296 293 292 284 278 273 278 271 269 266 257 241 263 276 278 279 244 276 270 276 264 280 257 267 268 272 280 277 271 265 245 247 249 254 250 248 248 248 248 249 249 250 249 246 240 232 227 227 228 232 236 237 238 237 231 229 231 235 236 230 210 217 226 225 221 228 234
305 300 300 298 302 301 296 295 297 295 288 286 282 277 276 265 271 267 259 253 265 279 286 269 240 274 277 280 264 264 261 273 271 263 274 266 265 262 249 243 253 251 254 253 251 250 249 248 248 249 249 247 241 233 229 228 228 231 235 236 235 231 227 226 230 235 230 219 225 224 228 228 226 227
300 299 294 297 302 301 295 293 292 293 290 287 284 282 281 277 272 272 264 266 263 274 276 283 265 252 261 256 278 274 280 276 267 263 259 261 263 264 251 251 240 244 248 250 249 248 248 247 246 246 247 247 246 240 234 230 228 226 230 231 229 228 227 225 226 231 234 222 223 229 227 226 225 224
295 295 296 298 300 297 294 295 296 292 287 286 281 280 280 279 278 277 274 266 269 268 272 276 286 262 265 272 252 263 253 274 280 276 265 261 249 253 266 251 248 237 239 249 251 251 251 249 248 245 244 245 245 243 238 231 226 223 223 228 227 225 226 226 225 227 229 221 218 220 227 229 229 223
296 294 293 293 294 293 292 292 293 295 288 284 280 276 279 276 276 277 276 276 274 273 279 280 271 278 262 249 272 253 238 253 260 276 291 279 254 241 244 265 243 229 241 241 243 244 240 240 243 247 247 246 243 243 241 237 232 225 219 219 224 224 224 225 226 225 224 223 219 217 219 226 231 226
289 290 289 286 286 286 284 284 285 283 285 285 281 277 273 274 274 273 275 274 273 276 277 276 286 276 280 271 253 275 266 277 269 229 248 271 280 258 238 237 253 230 226 251 251 247 251 251 250 250 249 247 245 244 243 241 235 229 221 218 219 222 223 223 225 225 223 222 221 219 218 219 225 232
298 296 293 289 285 287 289 289 289 287 286 286 288 287 286 284 277 275 272 272 272 272 273 279 277 281 277 267 271 263 238 232 255 260 196 256 264 275 273 263 227 227 234 241 242 245 225 238 238 235 241 242 243 245 243 242 238 233 226 219 218 215 218 219 221 225 226 224 222 220 218 218 220 224
289 286 289 292 295 295 293 291 289 288 286 284 282 285 287 287 284 279 277 273 268 269 274 272 280 280 276 275 264 262 251 244 255 265 250 259 272 272 271 276 238 200 209 237 247 245 221 218 242 232 241 242 236 239 239 236 234 231 229 223 219 213 214 218 219 222 225 225 222 219 218 218 218 220
310 310 306 304 306 307 306 304 301 298 295 292 290 287 284 281 279 283 283 280 278 274 267 272 274 273 278 275 271 265 269 251 237 251 248 252 268 269 272 280 288 174 193 219 247 259 214 192 234 236 235 239 229 234 238 237 236 231 228 226 222 213 212 216 224 224 223 224 222 220 219 218 218 217
309 308 309 310 310 308 304 301 299 296 294 292 289 286 283 281 280 277 277 283 284 281 282 279 271 272 269 280 277 275 271 273 261 245 249 248 249 262 260 256 266 233 182 192 237 257 209 185 227 246 238 230 221 230 233 235 235 235 232 227 224 216 211 214 218 227 226 223 222 221 219 219 219 217
305 304 303 303 299 298 301 301 299 298 296 295 294 293 292 288 285 283 280 276 276 282 280 280 278 271 279 278 277 278 277 277 274 263 256 251 250 251 255 255 266 252 179 199 243 260 232 177 215 241 239 221 215 225 232 233 234 234 234 232 227 223 215 213 213 223 228 227 224 222 220 219 219 219
299 300 302 303 303 301 300 297 297 293 285 281 276 275 274 275 279 281 282 284 285 285 287 286 281 283 286 284 291 291 297 292 284 280 272 264 261 257 254 258 259 255 172 198 237 265 247 192 210 241 246 203 214 222 220 225 230 231 230 232 231 227 220 217 217 219 226 228 227 225 223 220 218 219
299 300 300 299 299 300 300 299 298 299 301 301 299 295 290 284 280 277 272 264 257 257 258 264 269 276 275 276 277 279 276 271 274 274 275 274 268 266 268 265 260 263 199 208 202 256 268 189 206 240 242 190 214 222 217 221 224 228 229 229 230 229 229 228 224 222 224 227 227 227 226 224 221 219
298 298 298 300 298 296 295 294 295 294 294 292 287 283 278 276 274 272 274 281 282 278 273 268 269 270 273 275 274 274 272 266 261 261 262 262 262 264 263 261 259 256 209 198 202 247 260 187 210 244 233 191 227 221 211 224 225 226 227 228 228 229 229 230 228 224 223 225 225 226 226 225 223 221
298 296 294 293 294 293 291 291 294 294 294 288 283 281 284 289 293 293 288 285 285 283 280 278 276 276 276 276 276 277 277 278 281 282 272 256 249 250 255 258 255 252 235 216 198 227 255 232 209 244 233 196 223 221 212 219 221 224 225 226 227 227 228 230 232 230 228 227 226 225 226 224 223 222
291 283 283 284 281 280 284 289 291 293 295 289 288 289 288 286 281 278 280 282 284 287 288 286 285 284 284 284 284 284 284 283 282 278 275 280 272 255 244 254 251 260 245 223 186 218 236 249 194 199 262 248 244 229 221 212 214 220 224 224 226 227 228 229 231 233 231 230 228 228 226 223 222 221
274 262 267 275 282 287 289 292 295 295 294 287 279 276 273 274 271 271 266 268 271 268 266 266 268 270 272 274 273 275 280 281 281 275 273 273 271 276 266 255 256 258 248 222 186 223 232 232 217 187 235 253 242 215 204 210 204 208 212 222 226 229 231 232 234 234 235 233 231 229 227 224 219 216
273 261 255 269 282 289 290 291 294 295 295 291 284 278 275 272 275 271 268 261 262 264 259 261 257 259 260 261 262 263 267 270 270 275 275 275 274 273 275 273 264 255 256 240 174 221 237 228 233 197 209 228 263 277 240 215 207 195 203 207 216 221 227 233 236 236 236 235 235 234 230 227 220 213
265 270 269 255 283 290 292 294 293 292 292 290 282 279 277 272 274 280 274 271 268 271 272 271 276 275 273 271 273 278 280 277 277 272 266 259 255 256 263 266 267 267 260 247 188 204 232 226 231 197 226 212 240 242 262 214 215 194 204 200 210 215 203 220 225 234 239 240 238 235 232 230 224 217
288 284 281 274 287 291 291 291 290 288 289 287 287 280 282 287 293 298 294 293 296 294 293 288 283 283 281 279 272 268 268 269 272 272 272 271 266 256 252 253 257 262 256 252 225 206 228 240 214 200 210 201 243 231 223 235 239 208 204 203 210 204 197 206 211 223 221 225 236 238 235 230 228 225
281 283 282 280 287 288 288 287 286 285 288 295 298 299 301 300 299 298 302 305 299 290 285 282 278 274 270 271 269 264 266 263 264 271 273 274 274 270 266 255 251 251 258 259 251 232 227 240 200 205 215 208 223 228 212 216 247 197 191 203 211 200 201 198 214 215 216 215 226 235 241 237 232 228
279 280 279 278 282 283 285 288 292 298 307 304 301 300 298 296 298 295 291 283 281 279 277 273 269 268 261 263 265 261 262 266 268 268 271 274 276 276 277 273 265 260 257 255 250 241 234 237 230 213 210 209 216 220 232 221 181 167 191 206 193 205 198 203 211 219 217 215 217 223 225 233 234 231
283 289 294 297 299 302 304 306 307 308 302 296 296 295 297 302 306 301 293 290 286 281 276 274 272 270 264 263 269 275 275 276 274 272 270 265 267 271 274 274 269 265 256 248 246 242 238 235 233 218 210 212 216 222 219 223 169 197 175 162 197 209 201 203 207 210 211 210 215 213 215 220 226 227
296 294 292 294 298 299 296 294 285 271 282 294 300 300 302 303 297 289 287 281 280 273 272 267 269 270 273 272 269 271 273 271 269 270 272 275 270 266 268 271 268 261 255 249 242 240 237 236 230 223 215 215 215 222 219 217 206 182 180 184 191 177 206 204 209 210 204 209 213 214 216 218 220 219
281 281 281 280 287 299 305 308 307 305 303 301 295 293 290 285 281 280 271 271 272 272 269 273 268 270 266 267 269 266 259 260 258 248 261 263 266 268 268 267 268 267 258 250 242 236 235 232 229 221 222 215 218 221 221 211 221 176 192 188 176 189 196 199 199 207 209 211 213 213 219 216 220 217
310 314 313 314 322 311 303 298 290 286 289 289 295 293 294 290 286 283 287 287 280 276 274 272 276 272 274 272 267 265 260 258 260 257 258 258 264 260 263 262 259 260 265 255 245 231 229 229 228 225 221 216 217 219 217 214 217 206 186 189 197 210 176 178 196 207 206 200 208 216 214 211 211 215
320 316 320 327 328 334 324 318 305 301 298 297 292 289 284 281 284 284 279 277 272 270 271 272 272 273 269 266 264 261 263 259 259 249 255 256 262 262 253 255 258 261 262 259 248 233 225 225 225 228 222 220 219 211 207 213 218 215 194 187 192 207 197 189 190 193 186 194 214 215 218 212 213 212
328 337 331 326 326 322 324 321 322 320 320 316 313 304 308 304 295 289 286 282 282 281 277 278 276 276 274 273 270 267 263 264 255 253 260 264 258 263 264 265 262 258 254 255 251 237 219 217 214 220 220 209 210 210 209 212 219 214 200 176 191 205 209 179 190 185 183 193 200 211 210 216 213 212
348 338 335 329 326 324 324 326 329 329 326 324 320 315 313 307 305 304 297 297 293 288 283 277 269 268 271 272 273 273 271 273 273 271 262 259 259 257 262 259 256 250 252 254 249 232 206 197 187 194 172 177 209 264 269 222 213 212 192 193 194 203 200 178 182 186 190 201 203 210 213 215 214 206
343 336 331 328 328 331 330 329 327 323 321 317 317 316 315 310 307 304 298 298 293 285 279 274 270 266 266 267 270 272 272 271 270 265 268 261 260 260 262 262 260 258 254 253 247 214 193 184 170 162 168 179 186 223 228 216 212 214 202 202 198 195 184 172 180 182 191 201 204 202 213 214 214 192
333 329 324 322 325 325 321 320 319 316 313 311 311 310 304 301 301 299 295 300 292 287 278 274 270 270 267 267 265 267 268 268 267 266 263 261 258 260 259 261 255 252 253 247 234 199 186 180 184 177 189 188 189 204 222 67 222 224 218 215 188 175 173 159 161 187 202 199 202 203 213 217 210 191
329 324 322 323 320 319 314 312 314 312 311 310 305 304 301 297 295 299 301 300 301 299 295 287 278 273 271 270 271 269 269 266 265 265 267 266 264 261 259 262 257 246 242 229 194 182 175 177 179 190 188 190 212 213 217 177 20 288 235 226 166 164 152 154 177 194 201 198 201 210 211 225 214 194
318 324 327 323 320 319 317 315 313 311 311 309 309 308 308 308 307 308 310 308 305 304 310 307 295 282 276 273 267 266 266 268 268 266 265 265 266 272 276 277 266 245 218 184 172 169 170 178 181 186 190 195 208 213 208 162 242 212 189 199 189 165 181 180 191 193 188 190 199 96 42 59 63 106
331 324 314 314 312 313 310 310 308 307 307 306 306 305 306 310 309 309 309 311 313 317 316 316 316 309 291 282 275 272 268 264 265 268 272 274 275 277 281 292 274 230 189 166 161 167 178 185 180 181 180 190 188 177 169 162 80 38 279 232 217 206 187 180 188 181 190 192 165 142 142 116 99 163
325 321 316 312 308 309 309 308 306 304 304 304 304 307 306 301 303 304 308 316 317 315 317 318 318 317 313 308 299 287 279 274 269 269 272 276 279 281 280 286 304 331 233 179 174 165 188 196 181 168 155 104 95 85 81 118 212 151 189 256 229 218 210 199 187 178 177 166 159 166 171 173 162 158
314 315 314 315 314 311 308 306 308 307 304 304 305 307 307 307 302 313 315 314 313 315 315 315 316 316 315 315 313 310 301 293 286 279 277 277 279 282 282 278 274 184 138 155 205 212 209 90 149 148 131 134 139 151 202 209 218 155 177 226 303 219 201 199 200 193 171 152 145 123 93 49 52 92
321 319 318 317 314 309 309 309 309 308 306 306 306 308 311 314 312 315 313 313 314 317 318 317 315 315 313 313 312 310 307 304 298 289 280 272 269 268 268 255 244 220 209 197 152 93 101 108 117 129 154 161 174 167 196 203 192 144 142 141 143 62 109 160 146 151 163 162 149 172 166 159 152 192
325 322 317 315 314 313 313 312 311 309 308 307 307 309 314 319 320 319 318 317 319 320 320 319 318 316 315 314 311 309 309 310 312 309 300 289 271 265 264 254 241 233 213 144 131 136 121 138 152 141 148 174 156 167 193 155 156 153 152 144 115 107 111 84 103 139 143 135 111 101 96 89 75 67
320 316 314 314 314 313 311 312 312 313 313 313 312 314 315 316 318 318 316 316 317 318 319 319 318 316 316 314 313 312 311 316 317 315 315 306 293 273 260 254 246 224 174 139 142 123 136 137 140 146 141 147 153 175 146 147 142 133 135 136 135 126 113 122 119 101 82 48 98 118 114 132 136 118